Location: Home
(51.5204°N, 2.5456°W)
Time: 02:49:10
(UTC+00:00)

STRAND 1 - Pass Details

Date: 15 December 2019
Orbit: 768 x 781 km, 98.5° (Epoch: 23 January)

Event Time Altitude Azimuth Distance (km) Brightness Sun altitude
Rises 04:31:03 0° 100° (E) 3,251 ? -32.5°
Reaches altitude 10° 04:34:49 10° 71° (ENE) 2,325 ? -31.9°
Maximum altitude 04:36:47 12° 48° (NE) 2,171 ? -31.6°
Drops below altitude 10° 04:38:45 10° 26° (NNE) 2,327 ? -31.3°
Enters shadow 04:41:41 - 2° (N) 3,010 ? -30.8°
